Location: Cucq
(50.4773°N, 1.6202°E)
Time: 10:03:37
(UTC+00:00)

Nadezhda 4 Rocket - Pass Details

Date: 07 August 2020
Orbit: 949 x 993 km, 82.9° (Epoch: 20 September)

Event Time Altitude Azimuth Distance (km) Brightness Sun altitude
Rises 00:24:02 0° 351° (N) 3,717 8.3 -23.0°
Reaches altitude 10° 00:26:36 10° 353° (N) 2,760 7.4 -22.9°
Maximum altitude 00:32:56 75° 79° (ENE) 1,018 4.0 -22.8°
Enters shadow 00:35:21 40° 156° (SSE) 1,410 4.4 -22.7°
